This demonstration page uses our WeatherBlox Daily Observations layout. Learn more.

Left ArrowRight Arrow

Hourly Observations for September 28, 2022

Temp ( °F °C ) Dew Point ( °F °C ) Humidity (%) Winds ( mph kmh ) Pressure ( in mb ) Visibility ( mi km ) Precip ( " mm )
12:53 am 00:53 Clear 55 12.8 35 1.7 47 47 Calm 29.96 1015 10 16 0.00 0.00
1:53 am 01:53 Clear 50 10 34 1.1 54 54 SSW 3 6 29.97 1015 10 16 0.00 0.00
2:53 am 02:53 Clear 48 8.9 32 0 54 54 W 3 6 29.98 1015 10 16 0.00 0.00
3:53 am 03:53 Clear 44 6.7 32 0 62 62 Calm 29.99 1016 10 16 0.00 0.00
4:53 am 04:53 Clear 47 8.3 34 1.1 60 60 N 5 7 29.99 1016 10 16 0.00 0.00
5:53 am 05:53 Clear 42 5.6 31 -0.6 64 64 SSW 5 7 30.01 1016 10 16 0.00 0.00
6:53 am 06:53 Clear 42 5.6 32 0 67 67 Calm 30.01 1016 10 16 0.00 0.00
7:53 am 07:53 Sunny 42 5.6 32 0 67 67 SE 5 7 30.02 1017 10 16 0.00 0.00
8:53 am 08:53 Sunny 54 12.2 35 1.7 49 49 WNW 3 6 30.02 1017 10 16 0.00 0.00
9:53 am 09:53 Sunny 61 16.1 37 2.8 41 41 WSW 3 6 30.02 1017 10 16 0.00 0.00
10:53 am 10:53 Sunny 69 20.6 40 4.4 34 34 VRB 3 6 30.01 1016 10 16 0.00 0.00
11:53 am 11:53 Sunny 78 25.6 37 2.8 23 23 SW 8 13 29.98 1015 10 16 0.00 0.00
12:53 pm 12:53 Sunny 84 28.9 35 1.7 17 17 SW 7 11 29.95 1014 10 16 0.00 0.00
1:53 pm 13:53 Sunny 89 31.7 30 -1.1 12 12 SW 3 6 29.92 1013 10 16 0.00 0.00
2:53 pm 14:53 Sunny 92 33.3 28 -2.2 10 10 VRB 7 11 29.90 1012 10 16 0.00 0.00
3:53 pm 15:53 Sunny 92 33.3 32 0 12 12 E 10 17 29.89 1012 10 16 0.00 0.00
4:53 pm 16:53 Sunny 92 33.3 34 1.1 13 13 ESE 5 7 29.87 1012 10 16 0.00 0.00
5:53 pm 17:53 Sunny 91 32.8 32 0 12 12 E 3 6 29.87 1012 10 16 0.00 0.00
6:53 pm 18:53 Sunny 85 29.4 33 0.6 16 16 ENE 5 7 29.88 1012 10 16 0.00 0.00
7:53 pm 19:53 Clear 71 21.7 28 -2.2 20 20 SE 5 7 29.90 1013 10 16 0.00 0.00
8:53 pm 20:53 Clear 69 20.6 28 -2.2 21 21 VRB 3 6 29.88 1012 10 16 0.00 0.00
9:53 pm 21:53 Clear 79 26.1 29 -1.7 16 16 SSE 17 28 29.85 1011 10 16 0.00 0.00
10:53 pm 22:53 Clear 77 25 29 -1.7 17 17 S 20 31 29.84 1011 10 16 0.00 0.00
11:53 pm 23:53 Clear 79 26.1 30 -1.1 17 17 SSE 20 31 29.82 1010 10 16 0.00 0.00

Powered by AerisWeather